�������l�o���
Date,Time,MP-1(��Sv/h),MP-2(��Sv/h),MP-3(��Sv/h),MP-4(��Sv/h),MP-5(��Sv/h),MP-6(��Sv/h),MP-7(��Sv/h),MP-8(��Sv/h),����,����(m/s),���J
2016/06/29,00:00,1.246,1.984,2.111,2.125,1.691,0.617,1.156,1.008,���k��,2.5,��
2016/06/29,00:10,1.248,1.982,2.111,2.128,1.691,0.620,1.158,1.011,�k��,2.3,��
2016/06/29,00:20,1.246,1.980,2.114,2.128,1.688,0.618,1.159,1.011,���k��,2.0,��
2016/06/29,00:30,1.248,1.987,2.116,2.128,1.693,0.618,1.159,1.010,���k��,1.7,��
2016/06/29,00:40,1.248,1.983,2.116,2.132,1.694,0.619,1.161,1.011,�k�k��,0.9,��
2016/06/29,00:50,1.249,1.984,2.114,2.131,1.694,0.619,1.158,1.010,-,CALM,��
2016/06/29,01:00,1.250,1.983,2.114,2.128,1.694,0.618,1.156,1.008,-,CALM,��
2016/06/29,01:10,1.250,1.986,2.115,2.133,1.698,0.619,1.162,1.011,-,CALM,��
2016/06/29,01:20,1.248,1.984,2.115,2.130,1.699,0.620,1.160,1.011,��쐼,0.6,��
2016/06/29,01:30,1.250,1.984,2.116,2.132,1.697,0.619,1.160,1.010,-,CALM,��
2016/06/29,01:40,1.249,1.988,2.114,2.133,1.697,0.618,1.160,1.012,-,CALM,��
2016/06/29,01:50,1.250,1.985,2.114,2.130,1.698,0.619,1.160,1.011,�k�k��,0.6,��
2016/06/29,02:00,1.250,1.987,2.118,2.130,1.697,0.621,1.161,1.011,�k�k��,1.2,��
2016/06/29,02:10,1.249,1.987,2.115,2.133,1.698,0.619,1.161,1.010,�k��,2.0,��
2016/06/29,02:20,1.251,1.988,2.119,2.131,1.700,0.621,1.158,1.010,�k��,2.3,��
2016/06/29,02:30,1.252,1.989,2.119,2.133,1.699,0.619,1.161,1.013,�k��,3.7,��
2016/06/29,02:40,1.252,1.990,2.121,2.134,1.699,0.620,1.161,1.013,�k��,3.1,��
2016/06/29,02:50,1.250,1.988,2.118,2.133,1.700,0.618,1.160,1.012,�k��,3.1,��
2016/06/29,03:00,1.251,1.988,2.118,2.135,1.702,0.621,1.163,1.012,�k��,4.1,��
2016/06/29,03:10,1.250,1.990,2.120,2.133,1.701,0.620,1.161,1.011,�k��,2.3,��
2016/06/29,03:20,1.254,1.989,2.119,2.133,1.704,0.621,1.161,1.012,�k��,2.6,��
2016/06/29,03:30,1.253,1.992,2.119,2.136,1.703,0.621,1.160,1.012,�k��,1.2,��
2016/06/29,03:40,1.254,1.989,2.120,2.137,1.703,0.620,1.163,1.012,�k��,1.2,��
2016/06/29,03:50,1.252,1.991,2.122,2.135,1.702,0.620,1.161,1.013,�k��,1.1,��
2016/06/29,04:00,1.251,1.991,2.123,2.133,1.708,0.621,1.163,1.014,�k��,1.4,��
2016/06/29,04:10,1.252,1.995,2.122,2.133,1.703,0.621,1.162,1.011,�k��,0.9,��
2016/06/29,04:20,1.252,1.993,2.121,2.138,1.706,0.620,1.162,1.011,�k��,0.6,��
2016/06/29,04:30,1.252,1.988,2.121,2.137,1.705,0.620,1.162,1.012,�k��,0.6,��
2016/06/29,04:40,1.254,1.994,2.122,2.141,1.703,0.621,1.162,1.014,�k��,0.8,��
2016/06/29,04:50,1.253,1.991,2.124,2.135,1.708,0.621,1.161,1.012,-,CALM,��
2016/06/29,05:00,1.252,1.992,2.122,2.134,1.709,0.620,1.162,1.014,�k�k��,0.6,��
2016/06/29,05:10,1.254,1.993,2.122,2.137,1.706,0.622,1.163,1.012,�k�k��,1.2,��
2016/06/29,05:20,1.255,1.995,2.125,2.138,1.705,0.622,1.163,1.014,�k�k��,2.0,��
2016/06/29,05:30,1.255,1.996,2.126,2.138,1.710,0.619,1.164,1.013,�k��,1.4,��
2016/06/29,05:40,1.256,1.994,2.127,2.139,1.709,0.621,1.162,1.015,�k�k��,2.0,��
2016/06/29,05:50,1.251,1.992,2.129,2.140,1.708,0.619,1.162,1.014,�k,2.0,��
2016/06/29,06:00,1.252,1.995,2.126,2.142,1.709,0.620,1.162,1.012,�k��,2.3,��
2016/06/29,06:10,1.257,1.996,2.129,2.139,1.711,0.620,1.161,1.013,�k��,2.6,��
2016/06/29,06:20,1.252,2.001,2.131,2.144,1.709,0.620,1.163,1.014,�k��,2.9,��
2016/06/29,06:30,1.256,1.995,2.131,2.145,1.709,0.621,1.161,1.011,�k��,2.6,��
2016/06/29,06:40,1.256,1.997,2.131,2.141,1.708,0.621,1.164,1.012,���k��,1.9,��
2016/06/29,06:50,1.254,1.999,2.132,2.142,1.712,0.621,1.163,1.012,��,2.3,��
2016/06/29,07:00,1.254,2.001,2.129,2.146,1.710,0.620,1.163,1.013,���k��,1.7,��
2016/06/29,07:10,1.254,1.997,2.130,2.145,1.708,0.621,1.162,1.012,�k��,1.7,��
2016/06/29,07:20,1.254,2.002,2.135,2.144,1.709,0.620,1.163,1.012,�k�k��,1.4,��
2016/06/29,07:30,1.257,2.002,2.133,2.148,1.710,0.621,1.163,1.012,�k�k��,2.5,��
2016/06/29,07:40,1.256,2.006,2.137,2.142,1.713,0.619,1.166,1.015,�k�k��,2.0,��
2016/06/29,07:50,1.258,2.009,2.134,2.143,1.713,0.620,1.164,1.013,�k,1.2,��
2016/06/29,08:00,1.257,2.002,2.134,2.145,1.712,0.618,1.165,1.014,�k�k��,1.2,��
2016/06/29,08:10,1.257,2.001,2.135,2.145,1.713,0.617,1.164,1.013,�k�k��,1.2,��
2016/06/29,08:20,1.254,2.002,2.136,2.142,1.713,0.620,1.165,1.010,���k��,1.2,��
2016/06/29,08:30,1.257,2.002,2.141,2.146,1.715,0.619,1.165,1.012,�k�k��,1.2,��
2016/06/29,08:40,1.259,2.002,2.140,2.146,1.715,0.620,1.166,1.012,���쓌,1.5,��
2016/06/29,08:50,1.259,2.004,2.138,2.146,1.709,0.621,1.167,1.013,��,1.2,��
2016/06/29,09:00,1.257,2.002,2.137,2.148,1.702,0.619,1.166,1.014,��,2.0,��
2016/06/29,09:10,1.256,2.008,2.144,2.152,1.716,0.620,1.165,1.012,���k��,1.4,��
2016/06/29,09:20,1.256,2.009,2.145,2.152,1.720,0.620,1.165,1.013,��,2.2,��
2016/06/29,09:30,1.257,1.998,2.149,2.149,1.725,0.621,1.168,1.013,��,2.0,��
2016/06/29,09:40,1.258,2.010,2.149,2.154,1.724,0.622,1.168,1.015,���k��,2.0,��
2016/06/29,09:50,1.256,2.011,2.149,2.152,1.721,0.622,1.170,1.013,��,2.2,��
2016/06/29,10:00,1.258,2.012,2.153,2.155,1.726,0.624,1.170,1.014,���k��,2.6,��
2016/06/29,10:10,1.260,2.014,2.152,2.156,1.728,0.624,1.170,1.014,���k��,2.3,��
2016/06/29,10:20,1.258,2.018,2.158,2.153,1.734,0.623,1.171,1.016,��,2.0,��
2016/06/29,10:30,1.258,2.016,2.157,2.157,1.731,0.623,1.169,1.013,��,2.3,��
2016/06/29,10:40,1.261,2.019,2.159,2.157,1.732,0.624,1.170,1.015,��,3.4,��
2016/06/29,10:50,1.262,2.020,2.162,2.159,1.734,0.622,1.170,1.016,���쓌,3.4,��
2016/06/29,11:00,1.264,2.021,2.162,2.163,1.737,0.625,1.172,1.015,��,3.0,��
2016/06/29,11:10,1.262,2.022,2.166,2.158,1.736,0.627,1.172,1.015,��,3.1,��
2016/06/29,11:20,1.261,2.023,2.168,2.161,1.730,0.626,1.172,1.016,��,3.0,��
2016/06/29,11:30,1.264,2.025,2.166,2.159,1.731,0.627,1.174,1.017,���쓌,3.3,��
2016/06/29,11:40,1.264,2.022,2.171,2.160,1.742,0.625,1.174,1.017,���쓌,3.1,��
2016/06/29,11:50,1.263,2.025,2.171,2.157,1.749,0.627,1.175,1.017,���쓌,3.1,��
2016/06/29,12:00,1.263,2.027,2.169,2.164,1.751,0.627,1.174,1.018,��,3.1,��
2016/06/29,12:10,1.266,2.028,2.171,2.166,1.756,0.626,1.174,1.018,��,2.9,��
2016/06/29,12:20,1.268,2.028,2.174,2.163,1.755,0.626,1.175,1.020,���쓌,3.6,��
2016/06/29,12:30,1.266,2.029,2.175,2.162,1.756,0.625,1.176,1.020,�쓌,2.5,��
2016/06/29,12:40,1.265,2.034,2.177,2.165,1.757,0.625,1.174,1.017,�쓌,3.4,��
2016/06/29,12:50,1.268,2.030,2.179,2.164,1.760,0.625,1.174,1.018,�쓌,2.5,��
2016/06/29,13:00,1.267,2.031,2.177,2.166,1.761,0.625,1.176,1.018,�쓌,2.6,��
2016/06/29,13:10,1.267,2.033,2.179,2.164,1.761,0.627,1.174,1.018,���쓌,2.6,��
2016/06/29,13:20,1.265,2.033,2.181,2.167,1.754,0.627,1.177,1.020,�쓌,3.7,��
2016/06/29,13:30,1.267,2.034,2.178,2.167,1.747,0.625,1.176,1.019,�쓌,2.6,��
2016/06/29,13:40,1.266,2.037,2.181,2.167,1.754,0.625,1.177,1.019,�쓌,3.0,��
2016/06/29,13:50,1.268,2.033,2.182,2.169,1.762,0.626,1.176,1.020,�쓌,3.0,��
2016/06/29,14:00,1.269,2.035,2.180,2.174,1.780,0.627,1.175,1.018,�쓌,3.1,��
2016/06/29,14:10,1.269,2.037,2.181,2.167,1.778,0.626,1.175,1.019,�쓌,3.8,��
2016/06/29,14:20,1.266,2.035,2.185,2.170,1.775,0.627,1.177,1.018,���쓌,3.7,��
2016/06/29,14:30,1.268,2.039,2.181,2.169,1.776,0.626,1.176,1.018,�쓌,3.1,��
2016/06/29,14:40,1.269,2.035,2.182,2.173,1.777,0.629,1.176,1.017,���쓌,3.1,��
2016/06/29,14:50,1.266,2.037,2.184,2.171,1.779,0.628,1.176,1.019,�쓌,3.4,��
2016/06/29,15:00,1.269,2.037,2.185,2.168,1.783,0.627,1.175,1.023,���쓌,2.5,��
2016/06/29,15:10,1.270,2.038,2.187,2.174,1.780,0.628,1.177,1.019,���쓌,3.4,��
2016/06/29,15:20,1.269,2.037,2.182,2.170,1.783,0.628,1.175,1.018,��쓌,2.6,��
2016/06/29,15:30,1.270,2.040,2.182,2.170,1.785,0.629,1.177,1.018,�쓌,3.0,��
2016/06/29,15:40,1.268,2.039,2.187,2.168,1.784,0.630,1.177,1.019,��쓌,3.7,��
2016/06/29,15:50,1.269,2.037,2.189,2.168,1.788,0.628,1.178,1.019,��쓌,3.4,��
2016/06/29,16:00,1.271,2.040,2.187,2.172,1.782,0.628,1.178,1.019,��쓌,3.4,��
2016/06/29,16:10,1.268,2.039,2.188,2.171,1.787,0.630,1.176,1.018,��쓌,3.0,��
2016/06/29,16:20,1.270,2.039,2.189,2.170,1.785,0.627,1.176,1.020,��쓌,3.6,��
2016/06/29,16:30,1.271,2.037,2.187,2.171,1.786,0.629,1.179,1.019,��쓌,3.8,��
2016/06/29,16:40,1.269,2.040,2.184,2.172,1.789,0.630,1.177,1.021,��쓌,4.2,��
2016/06/29,16:50,1.269,2.041,2.186,2.175,1.788,0.629,1.179,1.019,��쓌,4.5,��
2016/06/29,17:00,1.272,2.038,2.193,2.177,1.788,0.629,1.178,1.019,��쓌,4.6,��
2016/06/29,17:10,1.270,2.044,2.192,2.175,1.786,0.628,1.178,1.020,��쓌,5.1,��
2016/06/29,17:20,1.272,2.039,2.190,2.175,1.789,0.627,1.178,1.019,��쓌,5.0,��
2016/06/29,17:30,1.269,2.040,2.193,2.177,1.788,0.627,1.176,1.020,��쓌,4.7,��
2016/06/29,17:40,1.270,2.041,2.194,2.177,1.791,0.629,1.176,1.022,��쓌,4.5,��
2016/06/29,17:50,1.271,2.042,2.196,2.177,1.790,0.628,1.177,1.019,��쓌,4.5,��
2016/06/29,18:00,1.269,2.043,2.191,2.172,1.787,0.629,1.177,1.019,��쓌,4.4,��
2016/06/29,18:10,1.272,2.044,2.195,2.174,1.790,0.629,1.176,1.021,��쓌,4.0,��
2016/06/29,18:20,1.268,2.044,2.195,2.176,1.787,0.629,1.176,1.022,��,4.4,��
2016/06/29,18:30,1.269,2.047,2.196,2.175,1.792,0.629,1.177,1.022,��쓌,5.7,��
2016/06/29,18:40,1.271,2.048,2.197,2.178,1.791,0.628,1.176,1.022,��,5.2,��
2016/06/29,18:50,1.271,2.048,2.193,2.180,1.788,0.631,1.178,1.024,��쓌,5.3,��
2016/06/29,19:00,1.273,2.046,2.197,2.180,1.791,0.630,1.175,1.023,��쓌,6.0,��
2016/06/29,19:10,1.273,2.045,2.193,2.179,1.789,0.629,1.177,1.021,��쓌,5.4,��
2016/06/29,19:20,1.273,2.044,2.196,2.180,1.786,0.631,1.179,1.024,��,5.4,��
2016/06/29,19:30,1.273,2.043,2.197,2.179,1.788,0.630,1.177,1.021,��,6.0,��
2016/06/29,19:40,1.273,2.046,2.193,2.182,1.793,0.630,1.178,1.024,��쓌,5.9,��
2016/06/29,19:50,1.272,2.046,2.193,2.179,1.792,0.630,1.178,1.025,��쓌,6.1,��
2016/06/29,20:00,1.272,2.044,2.195,2.182,1.795,0.631,1.181,1.025,��쓌,6.1,��
2016/06/29,20:10,1.273,2.046,2.196,2.182,1.793,0.632,1.178,1.025,��쓌,6.3,��
2016/06/29,20:20,1.274,2.046,2.192,2.180,1.793,0.631,1.181,1.022,��쓌,6.2,��
2016/06/29,20:30,1.275,2.047,2.195,2.180,1.791,0.631,1.180,1.023,��,5.4,��
2016/06/29,20:40,1.273,2.045,2.194,2.179,1.793,0.630,1.179,1.023,��,5.4,��
2016/06/29,20:50,1.276,2.049,2.192,2.181,1.792,0.631,1.180,1.023,��,5.8,��
2016/06/29,21:00,1.274,2.042,2.189,2.179,1.794,0.632,1.180,1.025,��,5.8,��
2016/06/29,21:10,1.273,2.040,2.192,2.182,1.791,0.632,1.180,1.023,��,5.1,��
2016/06/29,21:20,1.272,2.042,2.194,2.181,1.792,0.630,1.179,1.024,��,5.2,��
2016/06/29,21:30,1.273,2.046,2.192,2.179,1.794,0.632,1.179,1.025,��,6.0,��
2016/06/29,21:40,1.270,2.042,2.191,2.177,1.794,0.630,1.181,1.023,��,5.7,��
2016/06/29,21:50,1.271,2.042,2.192,2.180,1.792,0.628,1.180,1.023,��,5.5,��
2016/06/29,22:00,1.272,2.044,2.194,2.180,1.789,0.630,1.181,1.023,��,5.4,��
2016/06/29,22:10,1.273,2.044,2.190,2.182,1.791,0.631,1.180,1.022,��,5.3,��
2016/06/29,22:20,1.271,2.046,2.194,2.180,1.793,0.631,1.180,1.023,��,6.3,��
2016/06/29,22:30,1.270,2.044,2.194,2.180,1.793,0.630,1.180,1.023,��,6.5,��
2016/06/29,22:40,1.271,2.044,2.193,2.180,1.792,0.631,1.178,1.023,��,7.1,��
2016/06/29,22:50,1.274,2.047,2.192,2.179,1.793,0.631,1.181,1.026,��,5.9,��
2016/06/29,23:00,1.272,2.042,2.193,2.183,1.793,0.631,1.179,1.025,��,5.4,��
2016/06/29,23:10,1.272,2.046,2.191,2.180,1.791,0.630,1.181,1.025,��,5.5,��
2016/06/29,23:20,1.273,2.045,2.192,2.182,1.794,0.631,1.181,1.024,��쓌,5.7,��
2016/06/29,23:30,1.272,2.048,2.191,2.182,1.793,0.629,1.181,1.025,��,6.0,��
2016/06/29,23:40,1.272,2.046,2.193,2.182,1.794,0.632,1.180,1.024,��쓌,6.4,��
2016/06/29,23:50,1.273,2.043,2.193,2.178,1.793,0.631,1.178,1.024,��쓌,6.0,��
